Year,Month,Day,Hour,Minute,Value (Times are PST for insolation in W/m^2)
2008,01,30,00,00,0.00
2008,01,30,00,01,0.00
2008,01,30,00,02,0.00
2008,01,30,00,03,0.00
2008,01,30,00,04,0.00
2008,01,30,00,05,0.00
2008,01,30,00,06,0.00
2008,01,30,00,07,0.00
2008,01,30,00,08,0.00
2008,01,30,00,09,0.00
2008,01,30,00,10,0.00
2008,01,30,00,11,0.00
2008,01,30,00,12,0.00
2008,01,30,00,13,0.00
2008,01,30,00,14,0.00
2008,01,30,00,15,0.00
2008,01,30,00,16,0.00
2008,01,30,00,17,0.00
2008,01,30,00,18,0.00
2008,01,30,00,19,0.00
2008,01,30,00,20,0.00
2008,01,30,00,21,0.00
2008,01,30,00,22,0.00
2008,01,30,00,23,0.00
2008,01,30,00,24,0.00
2008,01,30,00,25,0.00
2008,01,30,00,26,0.00
2008,01,30,00,27,0.00
2008,01,30,00,28,0.00
2008,01,30,00,29,0.00
2008,01,30,00,30,0.00
2008,01,30,00,31,0.00
2008,01,30,00,32,0.00
2008,01,30,00,33,0.00
2008,01,30,00,34,0.00
2008,01,30,00,35,0.00
2008,01,30,00,36,0.00
2008,01,30,00,37,0.00
2008,01,30,00,38,0.00
2008,01,30,00,39,0.00
2008,01,30,00,40,0.00
2008,01,30,00,41,0.00
2008,01,30,00,42,0.00
2008,01,30,00,43,0.00
2008,01,30,00,44,0.00
2008,01,30,00,45,0.00
2008,01,30,00,46,0.00
2008,01,30,00,47,0.00
2008,01,30,00,48,0.00
2008,01,30,00,49,0.00
2008,01,30,00,50,0.00
2008,01,30,00,51,0.00
2008,01,30,00,52,0.00
2008,01,30,00,53,0.00
2008,01,30,00,54,0.00
2008,01,30,00,55,0.00
2008,01,30,00,56,0.00
2008,01,30,00,57,0.00
2008,01,30,00,58,0.00
2008,01,30,00,59,0.00
2008,01,30,01,00,0.00
2008,01,30,01,01,0.00
2008,01,30,01,02,0.00
2008,01,30,01,03,0.00
2008,01,30,01,04,0.00
2008,01,30,01,05,0.00
2008,01,30,01,06,0.00
2008,01,30,01,07,0.00
2008,01,30,01,08,0.00
2008,01,30,01,09,0.00
2008,01,30,01,10,0.00
2008,01,30,01,11,0.00
2008,01,30,01,12,0.00
2008,01,30,01,13,0.00
2008,01,30,01,14,0.00
2008,01,30,01,15,0.00
2008,01,30,01,16,0.00
2008,01,30,01,17,0.00
2008,01,30,01,18,0.00
2008,01,30,01,19,0.00
2008,01,30,01,20,0.00
2008,01,30,01,21,0.00
2008,01,30,01,22,0.00
2008,01,30,01,23,0.00
2008,01,30,01,24,0.00
2008,01,30,01,25,0.00
2008,01,30,01,26,0.00
2008,01,30,01,27,0.00
2008,01,30,01,28,0.00
2008,01,30,01,29,0.00
2008,01,30,01,30,0.00
2008,01,30,01,31,0.00
2008,01,30,01,32,0.00
2008,01,30,01,33,0.00
2008,01,30,01,34,0.00
2008,01,30,01,35,0.00
2008,01,30,01,36,0.00
2008,01,30,01,37,0.00
2008,01,30,01,38,0.00
2008,01,30,01,39,0.00
2008,01,30,01,40,0.00
2008,01,30,01,41,0.00
2008,01,30,01,42,0.00
2008,01,30,01,43,0.00
2008,01,30,01,44,0.00
2008,01,30,01,45,0.00
2008,01,30,01,46,0.00
2008,01,30,01,47,0.00
2008,01,30,01,48,0.00
2008,01,30,01,49,0.00
2008,01,30,01,50,0.00
2008,01,30,01,51,0.00
2008,01,30,01,52,0.00
2008,01,30,01,53,0.00
2008,01,30,01,54,0.00
2008,01,30,01,55,0.00
2008,01,30,01,56,0.00
2008,01,30,01,57,0.00
2008,01,30,01,58,0.00
2008,01,30,01,59,0.00
2008,01,30,02,00,0.00
2008,01,30,02,01,0.00
2008,01,30,02,02,0.00
2008,01,30,02,03,0.00
2008,01,30,02,04,0.00
2008,01,30,02,05,0.00
2008,01,30,02,06,0.00
2008,01,30,02,07,0.00
2008,01,30,02,08,0.00
2008,01,30,02,09,0.00
2008,01,30,02,10,0.00
2008,01,30,02,11,0.00
2008,01,30,02,12,0.00
2008,01,30,02,13,0.00
2008,01,30,02,14,0.00
2008,01,30,02,15,0.00
2008,01,30,02,16,0.00
2008,01,30,02,17,0.00
2008,01,30,02,18,0.00
2008,01,30,02,19,0.00
2008,01,30,02,20,0.00
2008,01,30,02,21,0.00
2008,01,30,02,22,0.00
2008,01,30,02,23,0.00
2008,01,30,02,24,0.00
2008,01,30,02,25,0.00
2008,01,30,02,26,0.00
2008,01,30,02,27,0.00
2008,01,30,02,28,0.00
2008,01,30,02,29,0.00
2008,01,30,02,30,0.00
2008,01,30,02,31,0.00
2008,01,30,02,32,0.00
2008,01,30,02,33,0.00
2008,01,30,02,34,0.00
2008,01,30,02,35,0.00
2008,01,30,02,36,0.00
2008,01,30,02,37,0.00
2008,01,30,02,38,0.00
2008,01,30,02,39,0.00
2008,01,30,02,40,0.00
2008,01,30,02,41,0.00
2008,01,30,02,42,0.00
2008,01,30,02,43,0.00
2008,01,30,02,44,0.00
2008,01,30,02,45,0.00
2008,01,30,02,46,0.00
2008,01,30,02,47,0.00
2008,01,30,02,48,0.00
2008,01,30,02,49,0.00
2008,01,30,02,50,0.00
2008,01,30,02,51,0.00
2008,01,30,02,52,0.00
2008,01,30,02,53,0.00
2008,01,30,02,54,0.00
2008,01,30,02,55,0.00
2008,01,30,02,56,0.00
2008,01,30,02,57,0.00
2008,01,30,02,58,0.00
2008,01,30,02,59,0.00
2008,01,30,03,00,0.00
2008,01,30,03,01,0.00
2008,01,30,03,02,0.00
2008,01,30,03,03,0.00
2008,01,30,03,04,0.00
2008,01,30,03,05,0.00
2008,01,30,03,06,0.00
2008,01,30,03,07,0.00
2008,01,30,03,08,0.00
2008,01,30,03,09,0.00
2008,01,30,03,10,0.00
2008,01,30,03,11,0.00
2008,01,30,03,12,0.00
2008,01,30,03,13,0.00
2008,01,30,03,14,0.00
2008,01,30,03,15,0.00
2008,01,30,03,16,0.00
2008,01,30,03,17,0.00
2008,01,30,03,18,0.00
2008,01,30,03,19,0.00
2008,01,30,03,20,0.00
2008,01,30,03,21,0.00
2008,01,30,03,22,0.00
2008,01,30,03,23,0.00
2008,01,30,03,24,0.00
2008,01,30,03,25,0.00
2008,01,30,03,26,0.00
2008,01,30,03,27,0.00
2008,01,30,03,28,0.00
2008,01,30,03,29,0.00
2008,01,30,03,30,0.00
2008,01,30,03,31,0.00
2008,01,30,03,32,0.00
2008,01,30,03,33,0.00
2008,01,30,03,34,0.00
2008,01,30,03,35,0.00
2008,01,30,03,36,0.00
2008,01,30,03,37,0.00
2008,01,30,03,38,0.00
2008,01,30,03,39,0.00
2008,01,30,03,40,0.00
2008,01,30,03,41,0.00
2008,01,30,03,42,0.00
2008,01,30,03,43,0.00
2008,01,30,03,44,0.00
2008,01,30,03,45,0.00
2008,01,30,03,46,0.00
2008,01,30,03,47,0.00
2008,01,30,03,48,0.00
2008,01,30,03,49,0.00
2008,01,30,03,50,0.00
2008,01,30,03,51,0.00
2008,01,30,03,52,0.00
2008,01,30,03,53,0.00
2008,01,30,03,54,0.00
2008,01,30,03,55,0.00
2008,01,30,03,56,0.00
2008,01,30,03,57,0.00
2008,01,30,03,58,0.00
2008,01,30,03,59,0.00
2008,01,30,04,00,0.00
2008,01,30,04,01,0.00
2008,01,30,04,02,0.00
2008,01,30,04,03,0.00
2008,01,30,04,04,0.00
2008,01,30,04,05,0.00
2008,01,30,04,06,0.00
2008,01,30,04,07,0.00
2008,01,30,04,08,0.00
2008,01,30,04,09,0.00
2008,01,30,04,10,0.00
2008,01,30,04,11,0.00
2008,01,30,04,12,0.00
2008,01,30,04,13,0.00
2008,01,30,04,14,0.00
2008,01,30,04,15,0.00
2008,01,30,04,16,0.00
2008,01,30,04,17,0.00
2008,01,30,04,18,0.00
2008,01,30,04,19,0.00
2008,01,30,04,20,0.00
2008,01,30,04,21,0.00
2008,01,30,04,22,0.00
2008,01,30,04,23,0.00
2008,01,30,04,24,0.00
2008,01,30,04,25,0.00
2008,01,30,04,26,0.00
2008,01,30,04,27,0.00
2008,01,30,04,28,0.00
2008,01,30,04,29,0.00
2008,01,30,04,30,0.00
2008,01,30,04,31,0.00
2008,01,30,04,32,0.00
2008,01,30,04,33,0.00
2008,01,30,04,34,0.00
2008,01,30,04,35,0.00
2008,01,30,04,36,0.00
2008,01,30,04,37,0.00
2008,01,30,04,38,0.00
2008,01,30,04,39,0.00
2008,01,30,04,40,0.00
2008,01,30,04,41,0.00
2008,01,30,04,42,0.00
2008,01,30,04,43,0.00
2008,01,30,04,44,0.00
2008,01,30,04,45,0.00
2008,01,30,04,46,0.00
2008,01,30,04,47,0.00
2008,01,30,04,48,0.00
2008,01,30,04,49,0.00
2008,01,30,04,50,0.00
2008,01,30,04,51,0.00
2008,01,30,04,52,0.00
2008,01,30,04,53,0.00
2008,01,30,04,54,0.00
2008,01,30,04,55,0.00
2008,01,30,04,56,0.00
2008,01,30,04,57,0.00
2008,01,30,04,58,0.00
2008,01,30,04,59,0.00
2008,01,30,05,00,0.00
2008,01,30,05,01,0.00
2008,01,30,05,02,0.00
2008,01,30,05,03,0.00
2008,01,30,05,04,0.00
2008,01,30,05,05,0.00
2008,01,30,05,06,0.00
2008,01,30,05,07,0.00
2008,01,30,05,08,0.00
2008,01,30,05,09,0.00
2008,01,30,05,10,0.00
2008,01,30,05,11,0.00
2008,01,30,05,12,0.00
2008,01,30,05,13,0.00
2008,01,30,05,14,0.00
2008,01,30,05,15,0.00
2008,01,30,05,16,0.00
2008,01,30,05,17,0.00
2008,01,30,05,18,0.00
2008,01,30,05,19,0.00
2008,01,30,05,20,0.00
2008,01,30,05,21,0.00
2008,01,30,05,22,0.00
2008,01,30,05,23,0.00
2008,01,30,05,24,0.00
2008,01,30,05,25,0.00
2008,01,30,05,26,0.00
2008,01,30,05,27,0.00
2008,01,30,05,28,0.00
2008,01,30,05,29,0.00
2008,01,30,05,30,0.00
2008,01,30,05,31,0.00
2008,01,30,05,32,0.00
2008,01,30,05,33,0.00
2008,01,30,05,34,0.00
2008,01,30,05,35,0.00
2008,01,30,05,36,0.00
2008,01,30,05,37,0.00
2008,01,30,05,38,0.00
2008,01,30,05,39,0.00
2008,01,30,05,40,0.00
2008,01,30,05,41,0.00
2008,01,30,05,42,0.00
2008,01,30,05,43,0.00
2008,01,30,05,44,0.00
2008,01,30,05,45,0.00
2008,01,30,05,46,0.00
2008,01,30,05,47,0.00
2008,01,30,05,48,0.00
2008,01,30,05,49,0.00
2008,01,30,05,50,0.00
2008,01,30,05,51,0.00
2008,01,30,05,52,0.00
2008,01,30,05,53,0.00
2008,01,30,05,54,0.00
2008,01,30,05,55,0.00
2008,01,30,05,56,0.00
2008,01,30,05,57,0.00
2008,01,30,05,58,0.00
2008,01,30,05,59,0.00
2008,01,30,06,00,0.00
2008,01,30,06,01,0.00
2008,01,30,06,02,0.00
2008,01,30,06,03,0.00
2008,01,30,06,04,0.00
2008,01,30,06,05,0.00
2008,01,30,06,06,0.00
2008,01,30,06,07,0.00
2008,01,30,06,08,0.00
2008,01,30,06,09,0.00
2008,01,30,06,10,0.00
2008,01,30,06,11,0.00
2008,01,30,06,12,0.00
2008,01,30,06,13,0.00
2008,01,30,06,14,0.00
2008,01,30,06,15,0.00
2008,01,30,06,16,0.00
2008,01,30,06,17,0.00
2008,01,30,06,18,0.00
2008,01,30,06,19,0.00
2008,01,30,06,20,0.00
2008,01,30,06,21,0.00
2008,01,30,06,22,0.00
2008,01,30,06,23,0.00
2008,01,30,06,24,0.00
2008,01,30,06,25,0.00
2008,01,30,06,26,0.00
2008,01,30,06,27,0.00
2008,01,30,06,28,0.00
2008,01,30,06,29,0.00
2008,01,30,06,30,0.00
2008,01,30,06,31,0.00
2008,01,30,06,32,0.00
2008,01,30,06,33,0.00
2008,01,30,06,34,0.00
2008,01,30,06,35,0.00
2008,01,30,06,36,0.00
2008,01,30,06,37,0.00
2008,01,30,06,38,0.00
2008,01,30,06,39,0.00
2008,01,30,06,40,0.00
2008,01,30,06,41,0.00
2008,01,30,06,42,0.00
2008,01,30,06,43,0.00
2008,01,30,06,44,0.00
2008,01,30,06,45,0.00
2008,01,30,06,46,0.00
2008,01,30,06,47,0.00
2008,01,30,06,48,0.00
2008,01,30,06,49,0.00
2008,01,30,06,50,0.00
2008,01,30,06,51,0.00
2008,01,30,06,52,0.00
2008,01,30,06,53,0.00
2008,01,30,06,54,0.00
2008,01,30,06,55,0.00
2008,01,30,06,56,0.00
2008,01,30,06,57,0.00
2008,01,30,06,58,0.00
2008,01,30,06,59,0.00
2008,01,30,07,00,0.00
2008,01,30,07,01,0.00
2008,01,30,07,02,0.00
2008,01,30,07,03,0.00
2008,01,30,07,04,0.00
2008,01,30,07,05,0.00
2008,01,30,07,06,0.00
2008,01,30,07,07,0.00
2008,01,30,07,08,0.00
2008,01,30,07,09,0.00
2008,01,30,07,10,0.00
2008,01,30,07,11,0.00
2008,01,30,07,12,0.00
2008,01,30,07,13,0.00
2008,01,30,07,14,0.00
2008,01,30,07,15,0.00
2008,01,30,07,16,0.00
2008,01,30,07,17,0.00
2008,01,30,07,18,0.00
2008,01,30,07,19,0.00
2008,01,30,07,20,0.00
2008,01,30,07,21,0.00
2008,01,30,07,22,0.00
2008,01,30,07,23,0.00
2008,01,30,07,24,0.00
2008,01,30,07,25,0.00
2008,01,30,07,26,0.00
2008,01,30,07,27,0.00
2008,01,30,07,28,0.00
2008,01,30,07,29,0.00
2008,01,30,07,30,0.00
2008,01,30,07,31,0.00
2008,01,30,07,32,0.00
2008,01,30,07,33,0.00
2008,01,30,07,34,0.00
2008,01,30,07,35,0.00
2008,01,30,07,36,0.00
2008,01,30,07,37,0.00
2008,01,30,07,38,0.00
2008,01,30,07,39,0.00
2008,01,30,07,40,0.00
2008,01,30,07,41,0.00
2008,01,30,07,42,0.00
2008,01,30,07,43,0.00
2008,01,30,07,44,0.00
2008,01,30,07,45,0.00
2008,01,30,07,46,0.00
2008,01,30,07,47,0.00
2008,01,30,07,48,0.00
2008,01,30,07,49,0.00
2008,01,30,07,50,2.40
2008,01,30,07,51,5.00
2008,01,30,07,52,5.00
2008,01,30,07,53,6.90
2008,01,30,07,54,7.20
2008,01,30,07,55,9.00
2008,01,30,07,56,9.00
2008,01,30,07,57,10.10
2008,01,30,07,58,11.00
2008,01,30,07,59,12.00
2008,01,30,08,00,12.40
2008,01,30,08,01,14.70
2008,01,30,08,02,15.10
2008,01,30,08,03,15.20
2008,01,30,08,04,16.00
2008,01,30,08,05,18.00
2008,01,30,08,06,18.20
2008,01,30,08,07,19.00
2008,01,30,08,08,19.00
2008,01,30,08,09,19.00
2008,01,30,08,10,19.00
2008,01,30,08,11,19.00
2008,01,30,08,12,19.00
2008,01,30,08,13,19.00
2008,01,30,08,14,19.00
2008,01,30,08,15,19.00
2008,01,30,08,16,19.00
2008,01,30,08,17,21.00
2008,01,30,08,18,21.40
2008,01,30,08,19,23.80
2008,01,30,08,20,25.60
2008,01,30,08,21,27.40
2008,01,30,08,22,29.80
2008,01,30,08,23,33.10
2008,01,30,08,24,35.50
2008,01,30,08,25,37.80
2008,01,30,08,26,39.60
2008,01,30,08,27,40.00
2008,01,30,08,28,41.90
2008,01,30,08,29,42.00
2008,01,30,08,30,42.50
2008,01,30,08,31,44.80
2008,01,30,08,32,48.80
2008,01,30,08,33,52.50
2008,01,30,08,34,49.20
2008,01,30,08,35,43.50
2008,01,30,08,36,39.80
2008,01,30,08,37,37.10
2008,01,30,08,38,35.00
2008,01,30,08,39,35.00
2008,01,30,08,40,36.90
2008,01,30,08,41,38.60
2008,01,30,08,42,36.30
2008,01,30,08,43,35.00
2008,01,30,08,44,35.00
2008,01,30,08,45,33.40
2008,01,30,08,46,33.00
2008,01,30,08,47,33.30
2008,01,30,08,48,35.60
2008,01,30,08,49,38.10
2008,01,30,08,50,40.90
2008,01,30,08,51,43.50
2008,01,30,08,52,44.10
2008,01,30,08,53,46.00
2008,01,30,08,54,46.00
2008,01,30,08,55,44.20
2008,01,30,08,56,40.60
2008,01,30,08,57,37.40
2008,01,30,08,58,37.10
2008,01,30,08,59,39.00
2008,01,30,09,00,39.40
2008,01,30,09,01,41.20
2008,01,30,09,02,43.40
2008,01,30,09,03,46.20
2008,01,30,09,04,48.90
2008,01,30,09,05,49.50
2008,01,30,09,06,51.00
2008,01,30,09,07,52.80
2008,01,30,09,08,55.50
2008,01,30,09,09,57.80
2008,01,30,09,10,58.00
2008,01,30,09,11,59.20
2008,01,30,09,12,62.40
2008,01,30,09,13,62.50
2008,01,30,09,14,58.90
2008,01,30,09,15,56.10
2008,01,30,09,16,54.00
2008,01,30,09,17,54.00
2008,01,30,09,18,54.90
2008,01,30,09,19,56.00
2008,01,30,09,20,57.40
2008,01,30,09,21,58.00
2008,01,30,09,22,59.20
2008,01,30,09,23,67.50
2008,01,30,09,24,75.30
2008,01,30,09,25,86.80
2008,01,30,09,26,98.40
2008,01,30,09,27,97.40
2008,01,30,09,28,88.90
2008,01,30,09,29,82.20
2008,01,30,09,30,76.40
2008,01,30,09,31,74.00
2008,01,30,09,32,75.70
2008,01,30,09,33,77.10
2008,01,30,09,34,79.40
2008,01,30,09,35,81.70
2008,01,30,09,36,83.50
2008,01,30,09,37,83.30
2008,01,30,09,38,76.80
2008,01,30,09,39,71.90
2008,01,30,09,40,69.80
2008,01,30,09,41,69.00
2008,01,30,09,42,69.00
2008,01,30,09,43,67.70
2008,01,30,09,44,67.00
2008,01,30,09,45,67.20
2008,01,30,09,46,68.50
2008,01,30,09,47,64.90
2008,01,30,09,48,57.30
2008,01,30,09,49,50.80
2008,01,30,09,50,45.00
2008,01,30,09,51,41.60
2008,01,30,09,52,38.40
2008,01,30,09,53,37.00
2008,01,30,09,54,38.30
2008,01,30,09,55,41.30
2008,01,30,09,56,45.80
2008,01,30,09,57,49.20
2008,01,30,09,58,51.00
2008,01,30,09,59,51.90
2008,01,30,10,00,53.00
2008,01,30,10,01,53.00
2008,01,30,10,02,53.00
2008,01,30,10,03,53.00
2008,01,30,10,04,53.30
2008,01,30,10,05,54.90
2008,01,30,10,06,56.00
2008,01,30,10,07,56.00
2008,01,30,10,08,54.00
2008,01,30,10,09,57.10
2008,01,30,10,10,65.00
2008,01,30,10,11,79.40
2008,01,30,10,12,94.50
2008,01,30,10,13,102.90
2008,01,30,10,14,108.80
2008,01,30,10,15,116.90
2008,01,30,10,16,122.40
2008,01,30,10,17,126.00
2008,01,30,10,18,120.60
2008,01,30,10,19,109.80
2008,01,30,10,20,94.60
2008,01,30,10,21,87.50
2008,01,30,10,22,86.00
2008,01,30,10,23,85.00
2008,01,30,10,24,88.60
2008,01,30,10,25,97.10
2008,01,30,10,26,107.20
2008,01,30,10,27,112.60
2008,01,30,10,28,122.90
2008,01,30,10,29,135.50
2008,01,30,10,30,151.70
2008,01,30,10,31,142.20
2008,01,30,10,32,112.80
2008,01,30,10,33,102.20
2008,01,30,10,34,96.20
2008,01,30,10,35,91.90
2008,01,30,10,36,88.50
2008,01,30,10,37,90.80
2008,01,30,10,38,97.30
2008,01,30,10,39,100.00
2008,01,30,10,40,95.30
2008,01,30,10,41,85.70
2008,01,30,10,42,81.40
2008,01,30,10,43,83.80
2008,01,30,10,44,95.80
2008,01,30,10,45,113.70
2008,01,30,10,46,126.70
2008,01,30,10,47,128.10
2008,01,30,10,48,122.00
2008,01,30,10,49,127.00
2008,01,30,10,50,108.70
2008,01,30,10,51,94.10
2008,01,30,10,52,83.20
2008,01,30,10,53,77.70
2008,01,30,10,54,80.00
2008,01,30,10,55,88.50
2008,01,30,10,56,98.90
2008,01,30,10,57,107.40
2008,01,30,10,58,118.30
2008,01,30,10,59,126.00
2008,01,30,11,00,127.10
2008,01,30,11,01,123.00
2008,01,30,11,02,159.20
2008,01,30,11,03,203.60
2008,01,30,11,04,216.00
2008,01,30,11,05,201.80
2008,01,30,11,06,188.50
2008,01,30,11,07,156.90
2008,01,30,11,08,135.50
2008,01,30,11,09,120.50
2008,01,30,11,10,111.10
2008,01,30,11,11,103.60
2008,01,30,11,12,90.70
2008,01,30,11,13,76.80
2008,01,30,11,14,68.40
2008,01,30,11,15,72.60
2008,01,30,11,16,85.50
2008,01,30,11,17,95.40
2008,01,30,11,18,101.70
2008,01,30,11,19,122.30
2008,01,30,11,20,134.90
2008,01,30,11,21,135.00
2008,01,30,11,22,122.10
2008,01,30,11,23,100.00
2008,01,30,11,24,84.00
2008,01,30,11,25,75.70
2008,01,30,11,26,66.50
2008,01,30,11,27,59.90
2008,01,30,11,28,60.80
2008,01,30,11,29,64.50
2008,01,30,11,30,65.00
2008,01,30,11,31,67.80
2008,01,30,11,32,75.20
2008,01,30,11,33,81.00
2008,01,30,11,34,89.50
2008,01,30,11,35,110.50
2008,01,30,11,36,120.10
2008,01,30,11,37,121.40
2008,01,30,11,38,126.20
2008,01,30,11,39,133.70
2008,01,30,11,40,136.40
2008,01,30,11,41,141.40
2008,01,30,11,42,169.10
2008,01,30,11,43,244.60
2008,01,30,11,44,291.60
2008,01,30,11,45,276.90
2008,01,30,11,46,240.20
2008,01,30,11,47,235.20
2008,01,30,11,48,242.90
2008,01,30,11,49,269.80
2008,01,30,11,50,249.60
2008,01,30,11,51,221.40
2008,01,30,11,52,212.20
2008,01,30,11,53,213.70
2008,01,30,11,54,200.70
2008,01,30,11,55,204.90
2008,01,30,11,56,200.80
2008,01,30,11,57,194.90
2008,01,30,11,58,182.20
2008,01,30,11,59,159.20
2008,01,30,12,00,131.70
2008,01,30,12,01,115.40
2008,01,30,12,02,118.20
2008,01,30,12,03,136.60
2008,01,30,12,04,157.30
2008,01,30,12,05,162.10
2008,01,30,12,06,160.90
2008,01,30,12,07,156.50
2008,01,30,12,08,160.90
2008,01,30,12,09,159.40
2008,01,30,12,10,150.60
2008,01,30,12,11,141.00
2008,01,30,12,12,133.60
2008,01,30,12,13,131.40
2008,01,30,12,14,126.30
2008,01,30,12,15,118.10
2008,01,30,12,16,109.20
2008,01,30,12,17,105.50
2008,01,30,12,18,116.50
2008,01,30,12,19,131.90
2008,01,30,12,20,140.10
2008,01,30,12,21,139.60
2008,01,30,12,22,131.10
2008,01,30,12,23,124.20
2008,01,30,12,24,107.20
2008,01,30,12,25,90.50
2008,01,30,12,26,79.80
2008,01,30,12,27,70.20
2008,01,30,12,28,59.10
2008,01,30,12,29,57.50
2008,01,30,12,30,51.30
2008,01,30,12,31,47.80
2008,01,30,12,32,51.40
2008,01,30,12,33,55.30
2008,01,30,12,34,56.00
2008,01,30,12,35,58.50
2008,01,30,12,36,63.20
2008,01,30,12,37,67.80
2008,01,30,12,38,64.90
2008,01,30,12,39,64.30
2008,01,30,12,40,69.70
2008,01,30,12,41,81.40
2008,01,30,12,42,101.80
2008,01,30,12,43,115.00
2008,01,30,12,44,124.90
2008,01,30,12,45,129.10
2008,01,30,12,46,131.90
2008,01,30,12,47,126.20
2008,01,30,12,48,115.30
2008,01,30,12,49,110.10
2008,01,30,12,50,112.90
2008,01,30,12,51,121.40
2008,01,30,12,52,140.80
2008,01,30,12,53,132.80
2008,01,30,12,54,113.40
2008,01,30,12,55,105.00
2008,01,30,12,56,113.70
2008,01,30,12,57,116.40
2008,01,30,12,58,113.40
2008,01,30,12,59,125.80
2008,01,30,13,00,144.60
2008,01,30,13,01,162.00
2008,01,30,13,02,176.10
2008,01,30,13,03,187.00
2008,01,30,13,04,189.60
2008,01,30,13,05,179.70
2008,01,30,13,06,163.20
2008,01,30,13,07,152.00
2008,01,30,13,08,145.20
2008,01,30,13,09,141.40
2008,01,30,13,10,141.10
2008,01,30,13,11,142.60
2008,01,30,13,12,143.20
2008,01,30,13,13,140.20
2008,01,30,13,14,135.20
2008,01,30,13,15,134.00
2008,01,30,13,16,134.60
2008,01,30,13,17,133.90
2008,01,30,13,18,142.70
2008,01,30,13,19,148.00
2008,01,30,13,20,162.90
2008,01,30,13,21,180.60
2008,01,30,13,22,167.40
2008,01,30,13,23,151.20
2008,01,30,13,24,138.90
2008,01,30,13,25,133.10
2008,01,30,13,26,132.00
2008,01,30,13,27,134.00
2008,01,30,13,28,135.30
2008,01,30,13,29,137.60
2008,01,30,13,30,139.00
2008,01,30,13,31,140.30
2008,01,30,13,32,141.80
2008,01,30,13,33,144.00
2008,01,30,13,34,143.60
2008,01,30,13,35,140.90
2008,01,30,13,36,139.00
2008,01,30,13,37,140.40
2008,01,30,13,38,139.40
2008,01,30,13,39,134.70
2008,01,30,13,40,127.60
2008,01,30,13,41,113.50
2008,01,30,13,42,109.10
2008,01,30,13,43,104.50
2008,01,30,13,44,104.60
2008,01,30,13,45,107.10
2008,01,30,13,46,109.90
2008,01,30,13,47,115.10
2008,01,30,13,48,121.90
2008,01,30,13,49,127.10
2008,01,30,13,50,131.50
2008,01,30,13,51,134.60
2008,01,30,13,52,139.70
2008,01,30,13,53,143.40
2008,01,30,13,54,147.20
2008,01,30,13,55,150.30
2008,01,30,13,56,154.20
2008,01,30,13,57,160.60
2008,01,30,13,58,166.00
2008,01,30,13,59,170.40
2008,01,30,14,00,173.20
2008,01,30,14,01,175.40
2008,01,30,14,02,176.00
2008,01,30,14,03,175.80
2008,01,30,14,04,172.80
2008,01,30,14,05,162.90
2008,01,30,14,06,150.50
2008,01,30,14,07,141.90
2008,01,30,14,08,139.00
2008,01,30,14,09,141.50
2008,01,30,14,10,145.40
2008,01,30,14,11,150.40
2008,01,30,14,12,154.80
2008,01,30,14,13,157.60
2008,01,30,14,14,159.80
2008,01,30,14,15,161.60
2008,01,30,14,16,160.00
2008,01,30,14,17,158.90
2008,01,30,14,18,156.60
2008,01,30,14,19,157.50
2008,01,30,14,20,158.20
2008,01,30,14,21,162.70
2008,01,30,14,22,166.40
2008,01,30,14,23,170.00
2008,01,30,14,24,173.10
2008,01,30,14,25,175.80
2008,01,30,14,26,178.00
2008,01,30,14,27,177.10
2008,01,30,14,28,174.00
2008,01,30,14,29,172.40
2008,01,30,14,30,168.50
2008,01,30,14,31,163.50
2008,01,30,14,32,161.80
2008,01,30,14,33,156.20
2008,01,30,14,34,148.10
2008,01,30,14,35,141.10
2008,01,30,14,36,135.10
2008,01,30,14,37,127.40
2008,01,30,14,38,122.60
2008,01,30,14,39,119.10
2008,01,30,14,40,115.20
2008,01,30,14,41,114.00
2008,01,30,14,42,113.20
2008,01,30,14,43,113.00
2008,01,30,14,44,110.80
2008,01,30,14,45,109.00
2008,01,30,14,46,109.90
2008,01,30,14,47,111.00
2008,01,30,14,48,111.00
2008,01,30,14,49,111.00
2008,01,30,14,50,109.00
2008,01,30,14,51,109.60
2008,01,30,14,52,111.90
2008,01,30,14,53,113.00
2008,01,30,14,54,113.00
2008,01,30,14,55,111.00
2008,01,30,14,56,114.70
2008,01,30,14,57,118.70
2008,01,30,14,58,118.90
2008,01,30,14,59,119.30
2008,01,30,15,00,120.80
2008,01,30,15,01,125.20
2008,01,30,15,02,128.00
2008,01,30,15,03,126.90
2008,01,30,15,04,122.40
2008,01,30,15,05,117.60
2008,01,30,15,06,113.30
2008,01,30,15,07,112.80
2008,01,30,15,08,108.10
2008,01,30,15,09,103.80
2008,01,30,15,10,100.90
2008,01,30,15,11,100.00
2008,01,30,15,12,97.40
2008,01,30,15,13,94.70
2008,01,30,15,14,90.80
2008,01,30,15,15,90.00
2008,01,30,15,16,90.60
2008,01,30,15,17,93.60
2008,01,30,15,18,95.00
2008,01,30,15,19,90.90
2008,01,30,15,20,85.20
2008,01,30,15,21,81.20
2008,01,30,15,22,77.80
2008,01,30,15,23,77.00
2008,01,30,15,24,77.00
2008,01,30,15,25,81.40
2008,01,30,15,26,85.00
2008,01,30,15,27,88.80
2008,01,30,15,28,90.00
2008,01,30,15,29,88.50
2008,01,30,15,30,86.40
2008,01,30,15,31,80.10
2008,01,30,15,32,73.90
2008,01,30,15,33,68.60
2008,01,30,15,34,63.80
2008,01,30,15,35,58.70
2008,01,30,15,36,56.00
2008,01,30,15,37,54.30
2008,01,30,15,38,56.00
2008,01,30,15,39,57.10
2008,01,30,15,40,58.00
2008,01,30,15,41,54.70
2008,01,30,15,42,53.10
2008,01,30,15,43,53.00
2008,01,30,15,44,53.00
2008,01,30,15,45,53.00
2008,01,30,15,46,53.70
2008,01,30,15,47,55.80
2008,01,30,15,48,52.80
2008,01,30,15,49,47.40
2008,01,30,15,50,40.20
2008,01,30,15,51,34.60
2008,01,30,15,52,32.20
2008,01,30,15,53,32.00
2008,01,30,15,54,32.10
2008,01,30,15,55,32.80
2008,01,30,15,56,32.00
2008,01,30,15,57,30.80
2008,01,30,15,58,30.00
2008,01,30,15,59,28.20
2008,01,30,16,00,25.60
2008,01,30,16,01,22.50
2008,01,30,16,02,20.30
2008,01,30,16,03,20.00
2008,01,30,16,04,22.60
2008,01,30,16,05,23.00
2008,01,30,16,06,23.20
2008,01,30,16,07,25.00
2008,01,30,16,08,25.00
2008,01,30,16,09,25.60
2008,01,30,16,10,26.00
2008,01,30,16,11,26.00
2008,01,30,16,12,28.40
2008,01,30,16,13,30.00
2008,01,30,16,14,30.00
2008,01,30,16,15,27.40
2008,01,30,16,16,23.50
2008,01,30,16,17,19.50
2008,01,30,16,18,18.00
2008,01,30,16,19,17.40
2008,01,30,16,20,16.00
2008,01,30,16,21,14.60
2008,01,30,16,22,12.50
2008,01,30,16,23,12.00
2008,01,30,16,24,11.00
2008,01,30,16,25,11.00
2008,01,30,16,26,11.00
2008,01,30,16,27,9.60
2008,01,30,16,28,7.30
2008,01,30,16,29,6.90
2008,01,30,16,30,5.00
2008,01,30,16,31,5.00
2008,01,30,16,32,5.00
2008,01,30,16,33,5.00
2008,01,30,16,34,5.00
2008,01,30,16,35,5.00
2008,01,30,16,36,5.00
2008,01,30,16,37,5.00
2008,01,30,16,38,5.00
2008,01,30,16,39,5.00
2008,01,30,16,40,5.00
2008,01,30,16,41,5.00
2008,01,30,16,42,3.60
2008,01,30,16,43,0.00
2008,01,30,16,44,0.00
2008,01,30,16,45,0.00
2008,01,30,16,46,0.00
2008,01,30,16,47,0.00
2008,01,30,16,48,0.00
2008,01,30,16,49,0.00
2008,01,30,16,50,0.00
2008,01,30,16,51,0.00
2008,01,30,16,52,0.00
2008,01,30,16,53,0.00
2008,01,30,16,54,0.00
2008,01,30,16,55,0.00
2008,01,30,16,56,0.00
2008,01,30,16,57,0.00
2008,01,30,16,58,0.00
2008,01,30,16,59,0.00
2008,01,30,17,00,0.00
2008,01,30,17,01,0.00
2008,01,30,17,02,0.00
2008,01,30,17,03,0.00
2008,01,30,17,04,0.00
2008,01,30,17,05,0.00
2008,01,30,17,06,0.00
2008,01,30,17,07,0.00
2008,01,30,17,08,0.00
2008,01,30,17,09,0.00
2008,01,30,17,10,0.00
2008,01,30,17,11,0.00
2008,01,30,17,12,0.00
2008,01,30,17,13,0.00
2008,01,30,17,14,0.00
2008,01,30,17,15,0.00
2008,01,30,17,16,0.00
2008,01,30,17,17,0.00
2008,01,30,17,18,0.00
2008,01,30,17,19,0.00
2008,01,30,17,20,0.00
2008,01,30,17,21,0.00
2008,01,30,17,22,0.00
2008,01,30,17,23,0.00
2008,01,30,17,24,0.00
2008,01,30,17,25,0.00
2008,01,30,17,26,0.00
2008,01,30,17,27,0.00
2008,01,30,17,28,0.00
2008,01,30,17,29,0.00
2008,01,30,17,30,0.00
2008,01,30,17,31,0.00
2008,01,30,17,32,0.00